Cloud_Cover
51 100 100 53 10 18 66 96 44 100 83 5 93 79 100 100 82 5 27 100 5 14 11 100 100 100 100 100 100 100 100 98 66 100 69 26 20 98 100 88 72 77 49 29
100 100 98 64 68 69 83 100 100 100 100 100 99 98 5 5 93 5 78 48 2 3 0 35 100 100 100 100 100 100 79 20 66 43 87 72 5 46 100 100 92 96 100 32
100 99 100 99 99 98 100 83 100 100 100 100 100 71 70 6 6 5 78 76 4 2 0 20 88 100 100 100 100 100 49 5 64 43 99 98 59 17 82 100 100 100 81 63
100 100 100 100 100 100 100 100 100 100 100 86 5 78 5 5 1 5 41 10 5 0 0 0 0 100 100 100 100 100 100 100 96 28 100 100 100 99 99 100 100 100 52 64
100 100 100 100 100 100 100 100 100 100 100 86 4 5 5 0 0 0 5 5 0 0 0 0 0 31 100 100 100 100 100 100 10 6 60 100 100 85 100 100 100 100 23 5
100 100 100 100 100 100 100 93 84 65 6 3 5 1 0 0 0 5 4 5 0 0 0 0 0 0 5 64 100 100 100 100 100 96 68 100 89 100 99 100 100 100 91 25
100 100 100 100 100 100 100 100 88 8 5 5 0 0 0 0 3 0 0 0 0 0 0 0 0 0 0 0 7 97 100 100 100 100 100 100 100 93 92 100 100 100 50 76
19 64 93 98 100 92 9 5 5 5 5 0 0 0 0 0 0 0 0 0 0 0 0 0 0 0 0 0 0 73 100 100 100 83 100 96 100 100 94 100 100 34 6 90
100 100 32 5 1 2 4 8 5 4 0 0 0 0 0 0 0 0 0 0 0 0 0 0 0 0 0 0 0 60 100 100 100 99 99 96 96 100 100 90 79 97 6 96
6 6 8 5 5 5 5 4 0 0 0 2 0 0 0 0 0 0 0 0 0 0 0 0 0 0 0 0 0 24 100 100 100 100 38 88 100 100 100 100 100 100 81 77
5 7 12 0 0 0 0 6 14 0 3 1 0 0 0 0 0 0 0 0 0 0 0 0 0 0 0 0 0 4 70 100 100 100 5 11 100 100 96 100 100 100 100 86
0 0 4 5 1 2 0 3 5 4 0 0 0 0 0 0 0 4 5 0 4 5 5 5 3 4 5 1 0 0 0 4 100 90 5 28 8 59 59 100 100 100 100 77
0 0 0 0 0 3 5 24 96 11 4 0 0 3 0 1 0 4 3 0 1 5 5 5 5 5 5 5 2 0 0 0 5 74 5 5 5 28 100 100 100 100 100 100
0 0 0 0 0 0 0 3 5 4 0 0 0 0 0 2 0 0 0 0 0 0 5 2 1 0 5 5 3 3 0 0 0 0 1 24 8 62 63 86 98 100 100 100
0 0 0 0 0 1 0 4 5 0 0 0 0 0 0 0 0 4 0 0 4 3 2 5 19 7 0 2 5 5 5 0 0 0 20 51 96 90 94 100 87 100 100 100
5 5 0 5 5 5 0 0 0 0 0 0 0 0 0 0 0 5 4 0 0 0 5 5 40 98 4 0 0 3 5 4 0 0 1 6 70 62 100 100 100 98 98 100
5 5 5 5 5 5 0 1 0 0 0 0 0 0 0 5 2 0 0 5 0 0 0 5 5 5 5 5 0 0 5 5 3 0 0 0 5 44 87 100 100 100 100 100
5 16 97 12 5 0 5 12 5 0 0 0 0 0 0 5 15 3 5 2 4 0 4 5 5 8 68 5 4 0 0 0 5 5 5 5 5 23 86 84 100 100 100 100
5 24 72 11 7 1 0 4 5 0 0 0 0 0 5 5 55 5 5 0 0 5 5 5 5 5 6 4 0 0 0 0 5 5 44 49 6 6 64 100 100 100 100 100
67 76 25 5 4 5 7 5 5 0 0 0 5 1 0 5 5 0 1 0 11 5 4 5 5 98 49 5 0 0 0 2 5 85 88 92 100 75 91 100 100 100 100 100
83 100 90 79 8 5 4 5 86 11 0 5 5 5 5 5 6 5 9 5 8 26 5 5 5 91 80 46 48 3 0 5 52 100 100 100 100 100 100 100 100 100 100 100
100 100 98 90 23 15 5 60 64 27 98 43 5 4 9 55 98 100 100 81 5 5 5 81 74 30 36 100 92 95 51 26 83 100 100 100 100 100 100 100 100 100 100 100
100 98 81 92 18 5 7 5 8 12 6 69 100 100 100 100 100 85 5 5 5 5 3 4 50 65 86 98 100 98 100 100 100 100 100 100 100 100 100 100 100 100 100 100
100 100 100 100 43 88 6 12 64 25 13 28 23 5 45 98 85 19 5 5 3 1 1 5 13 42 96 43 100 71 100 100 100 100 100 100 100 100 100 100 100 100 100 99
100 100 100 100 100 76 35 76 87 86 100 99 5 5 5 5 5 5 64 89 8 5 3 5 57 100 96 94 93 96 100 100 100 95 88 100 100 100 100 100 100 100 100 100
100 100 100 100 100 100 100 100 100 98 75 20 14 28 9 5 4 4 4 2 1 50 0 2 5 34 15 14 19 93 100 100 96 100 100 100 100 100 100 100 100 100 100 100